Regional Weather Roundup
Issued by NWS

Home | Current Version | Previous Version | Graphics & Text | Print | Product List | Glossary On
Versions: 1 2 3 4 5 6 7 8 9 10 11 12 13 14 15 16 17 18 19 20 21 22 23 24 25 26 27 28 29 30 31 32 33 34 35 36 37 38 39 40 41 42 43 44 45 46 47 48 49
000
ASUS45 KBOU 291807
RWRCO

WEATHER ROUNDUP FOR COLORADO
NATIONAL WEATHER SERVICE DENVER/BOULDER CO
1100 AM MST THU JAN 29 2015

NOTE: "FAIR" INDICATES FEW OR NO CLOUDS BELOW 12000 FEET WITH NO
SIGNIFICANT WEATHER AND/OR OBSTRUCTIONS TO VISIBILITY.

COZ001>005-013-030-031-291900-
...NORTHWEST COLORADO...

CITY           SKY/WX    TMP DP  RH WIND       PRES   REMARKS
CRAIG          MOSUNNY   33  30  88 N3        30.42F
HAYDEN         MOSUNNY   32  25  74 CALM      30.42S
MEEKER         MOSUNNY   31  24  75 S3        30.40F
MOUNT WERNER   NOT AVBL
STEAMBOAT SPGS MOSUNNY   32  26  77 CALM      30.42S
WALDEN         PTSUNNY   34  28  80 CALM      30.44S
$$

COZ006>008-011-291900-
...WEST CENTRAL VALLEYS...

CITY           SKY/WX    TMP DP  RH WIND       PRES   REMARKS
GRAND JUNCTION SUNNY     47  28  47 SE8       30.37S
MONTROSE       MOSUNNY   42  29  59 CALM      30.40S
EAGLE          SUNNY     39  28  65 CALM      30.43F
RIFLE          SUNNY     42  26  53 CALM      30.38F
DELTA          MOSUNNY   43  29  58 CALM      30.39F
NUCLA          NOT AVBL
$$

COZ017>023-064>068-291900-
...SOUTHWEST COLORADO...

CITY           SKY/WX    TMP DP  RH WIND       PRES   REMARKS
DURANGO        CLOUDY    39  30  70 CALM      30.40R
CORTEZ         CLOUDY    45  30  55 CALM      30.37R
PAGOSA SPRINGS CLOUDY    43  26  50 CALM      30.43R
TELLURIDE      CLOUDY    39  18  43 CALM      30.42R
WOLF CREEK PAS NOT AVBL
$$

COZ009-010-012-014-032>034-037-058>063-291900-
...CENTRAL COLORADO...

CITY           SKY/WX    TMP DP  RH WIND       PRES   REMARKS
ASPEN          MOSUNNY   36  19  50 NW5       30.38F
BUENA VISTA    CLOUDY    32  21  65 SE5       30.50S WCI  27
COPPER MTN     SUNNY     28  14  54 SE10      30.46S WCI  19
BERTHOUD PASS  FAIR      18  10  73 SE9       30.48S WCI   6
COTTONWOOD PAS CLOUDY    30  23  74 SE5       30.49S WCI  25
GUNNISON       MOSUNNY   18  12  79 CALM      30.48F
KREMMLING      MOSUNNY   34  25  69 CALM      30.46S
LEADVILLE      MOSUNNY   23  17  78 S10       30.45S WCI  12
MONARCH PASS   CLOUDY    19  18  93 MISG      30.57R
SALIDA         CLOUDY    35  26  69 E7        30.58S WCI  29
SUNLIGHT       MOSUNNY   30  21  69 E3          N/A
WILKERSON PASS FOG       23  21  93 CALM      30.51S VSB 1/4
$$

COZ069>075-291900-
...SAN LUIS VALLEY/SANGRE DE CRISTO MOUNTAINS...

CITY           SKY/WX    TMP DP  RH WIND       PRES   REMARKS
ALAMOSA        MOSUNNY   39  23  52 SW3       30.44S
LA VETA PASS   NOT AVBL
SAGUACHE       PTSUNNY   36  27  69 S5        30.45S
$$

COZ035-036-038>040-291900-
...NORTHERN COLORADO FRONT RANGE...

CITY           SKY/WX    TMP DP  RH WIND       PRES   REMARKS
DENVER INTL AP CLOUDY    43  24  47 VRB3      30.51S
DMNS CITY PARK   N/A     44  24  44 NE5       30.51F
AURORA         CLOUDY    39  24  54 VRB1      30.51F
FRONT RANGE AP PTSUNNY   45  25  45 CALM      30.51F
ERIE MUNI ARPT CLOUDY    43  23  44 S6        30.51F
BOULDER MUN AP CLOUDY    41  27  56 SE3       30.51S
CENTENNIAL     CLOUDY    37  26  64 SE5       30.51S
BROOMFIELD     CLOUDY    39  27  60 CALM      30.51F
FORT COLLINS   MOSUNNY   45  27  49 S6        30.51F
LONGMONT       MOSUNNY   47  26  44 S3        30.52F
$$

COZ041-046-047-076>085-087-088-291900-
...PIKES PEAK/PALMER DIVIDE AND SOUTHERN FOOTHILLS...

CITY           SKY/WX    TMP DP  RH WIND       PRES   REMARKS
COLO. SPRINGS  CLOUDY    39  26  59 S3        30.52S
A. F. ACADEMY  CLOUDY    37  25  62 SE3       30.50F
ELLICOTT       CLOUDY   N/A N/A N/A VRB3      30.52S
FALCON         CLOUDY    35  24  65 CALM      30.52F
FORT CARSON    CLOUDY    40  26  57 S10       30.51S
LIMON          CLOUDY    41  20  43 N12       30.51F
MONUMENT HILL  CLOUDY    32  27  80 SE3       30.50S
TRINIDAD       CLOUDY    41  26  55 CALM      30.53S
$$

COZ042>045-048>051-090-091-291900-
...NORTHEAST COLORADO...

CITY           SKY/WX    TMP DP  RH WIND       PRES   REMARKS
GREELEY ARPT   PTSUNNY   45  25  45 S6        30.50F
AKRON          MOSUNNY   43  19  38 NW16      30.50S
BURLINGTON     MOSUNNY   45  19  35 N14G24    30.50R
WRAY           SUNNY     45  23  41 N9        30.51F
STERLING       MOSUNNY   50  23  34 N15       30.50S
HOLYOKE        SUNNY     43  27  52 N12       30.52S
FORT MORGAN    PTSUNNY   42  19  39 W6        30.52F
$$

COZ086-089-092>099-291900-
...SOUTHEAST COLORADO...

CITY           SKY/WX    TMP DP  RH WIND       PRES   REMARKS
PUEBLO         CLOUDY    46  19  34 SE5       30.52S
LA JUNTA       CLOUDY    50  25  37 N9        30.54R
LAMAR          CLOUDY    49  23  36 N10       30.52R
SPRINGFIELD      N/A     48  24  39 N18       30.51S
$$



USA.gov is the U.S. government's official web portal to all federal, state and local government web resources and services.